Date String (YYYY-MM-DD hh:mm:ss) UTC,Instrument flags,absolute air pressure of the measurement (hPa),sample flow rate (lpm),inlet stack bypass flow (lpm),air temperature of the measurement (°C),ambient temperature measured by the external sensor (°C),aerosol sample conditioner tube jacket temperature (°C),OPC LED temperature (°C),internal box temperature (°C),relative humidity of the measurement (%),span deviation,mass concentration of particles derived from Lorenz-Mie calculation of OPC scattering (μg/m³),mass concentration of particles derived from Lorenz-Mie calculation of OPC scattering (μg/m³),mass concentration of particles derived from Lorenz-Mie calculation of OPC scattering (μg/m³)
DateTimeUTC,F1_M11,P_M11,Q1_M11,Q2_M11,T1_M11,T2_M11,T3_M11,T4_M11,T5_M11,U1_M11,ZSPAN_M11,X0_M11,X2_M11,X1_M11
2023-06-10 21:00:00,SystemResetWarning,0829.3,5.00,000.00,029.3,025.5,000.0,037.8,030.7,24.2,0000.0,0008.08,0004.06,0003.47
2023-06-10 21:01:00,SystemResetWarning,0829.3,5.00,000.00,029.2,025.9,000.0,037.8,030.6,25.0,0000.0,0008.17,0004.09,0003.47
2023-06-10 21:02:00,SystemResetWarning,0829.3,5.00,000.00,029.2,026.3,000.0,037.8,030.7,25.0,0000.0,0008.44,0004.12,0003.49
2023-06-10 21:03:00,SystemResetWarning,0829.3,5.01,000.00,029.2,026.6,000.0,037.8,030.7,24.6,0000.0,0008.63,0004.16,0003.51
2023-06-10 21:04:00,SystemResetWarning,0829.3,5.00,000.00,029.2,026.9,000.0,037.8,030.8,24.6,0000.0,0008.78,0004.20,0003.52
2023-06-10 21:05:00,SystemResetWarning,0829.3,5.00,000.00,029.2,027.2,000.0,037.8,030.9,25.1,0000.0,0008.96,0004.24,0003.53
2023-06-10 21:06:00,SystemResetWarning,0829.4,5.00,000.00,029.3,027.4,000.0,037.8,030.9,24.8,0000.0,0010.39,0004.26,0003.53
2023-06-10 21:07:00,SystemResetWarning,0829.3,5.01,000.00,029.3,027.6,000.0,037.8,031.0,25.2,0000.0,0010.46,0004.25,0003.53
2023-06-10 21:08:00,SystemResetWarning,0829.4,5.00,000.00,029.3,027.8,000.0,037.8,031.0,24.2,0000.0,0010.35,0004.26,0003.54
2023-06-10 21:09:00,SystemResetWarning,0829.4,5.00,000.00,029.4,027.9,000.0,037.8,031.0,24.4,0000.0,0010.31,0004.28,0003.55
2023-06-10 21:10:00,SystemResetWarning,0829.4,5.00,000.00,029.4,028.0,000.0,037.8,031.1,25.0,0000.0,0010.13,0004.27,0003.56
2023-06-10 21:11:00,SystemResetWarning,0829.4,4.98,000.00,029.4,026.5,000.0,037.8,031.1,24.1,0000.0,0010.11,0004.28,0003.57
2023-06-10 21:12:00,SystemResetWarning,0829.3,5.02,000.00,029.4,025.2,000.0,037.8,031.1,24.0,0000.0,0010.26,0004.30,0003.58
2023-06-10 21:13:00,SystemResetWarning,0829.4,5.01,000.00,029.4,025.3,000.0,037.7,030.9,24.0,0000.0,0010.71,0004.29,0003.57
2023-06-10 21:14:00,SystemResetWarning,0829.3,4.98,000.00,029.3,025.6,000.0,037.7,030.7,24.2,0000.0,0010.50,0004.27,0003.57
2023-06-10 21:15:00,SystemResetWarning,0829.3,5.00,000.00,029.3,025.9,000.0,037.8,030.7,24.2,0000.0,0010.39,0004.24,0003.56
2023-06-10 21:16:00,SystemResetWarning,0829.4,5.01,000.00,029.2,026.3,000.0,037.8,030.7,24.4,0000.0,0010.29,0004.23,0003.56
2023-06-10 21:17:00,SystemResetWarning,0829.3,5.00,000.00,029.2,026.7,000.0,037.8,030.8,25.0,0000.0,0009.12,0004.23,0003.56
2023-06-10 21:18:00,SystemResetWarning,0829.4,5.00,000.00,029.3,027.0,000.0,037.8,030.8,24.9,0000.0,0008.73,0004.23,0003.55
2023-06-10 21:19:00,SystemResetWarning,0829.4,5.00,000.00,029.3,027.3,000.0,037.8,030.9,25.5,0000.0,0008.93,0004.24,0003.54
2023-06-10 21:20:00,SystemResetWarning,0829.3,5.00,000.00,029.3,027.5,000.0,037.8,030.9,25.1,0000.0,0009.34,0004.22,0003.52
2023-06-10 21:21:00,SystemResetWarning,0829.3,5.00,000.00,029.3,027.7,000.0,037.8,030.9,24.9,0000.0,0009.67,0004.22,0003.50
2023-06-10 21:22:00,SystemResetWarning,0829.4,5.00,000.00,029.4,027.8,000.0,037.8,031.0,24.8,0000.0,0009.79,0004.24,0003.49
2023-06-10 21:23:00,SystemResetWarning,0829.4,5.00,000.00,029.4,028.0,000.0,037.8,031.0,24.7,0000.0,0009.86,0004.25,0003.48
2023-06-10 21:24:00,SystemResetWarning,0829.5,4.99,000.00,029.4,027.1,000.0,037.8,031.1,24.1,0000.0,0009.01,0004.22,0003.47
2023-06-10 21:25:00,SystemResetWarning,0829.5,5.00,000.00,029.4,025.3,000.0,037.8,031.0,24.0,0000.0,0009.12,0004.21,0003.49
2023-06-10 21:26:00,SystemResetWarning,0829.5,5.01,000.00,029.4,025.1,000.0,037.7,030.9,24.3,0000.0,0009.94,0004.20,0003.49
2023-06-10 21:27:00,SystemResetWarning,0829.6,5.01,000.00,029.3,025.4,000.0,037.7,030.6,24.4,0000.0,0009.89,0004.16,0003.49
2023-06-10 21:28:00,SystemResetWarning,0829.7,4.99,000.00,029.2,025.8,000.0,037.7,030.6,24.8,0000.0,0009.82,0004.12,0003.50
2023-06-10 21:29:00,SystemResetWarning,0829.7,4.99,000.00,029.2,026.2,000.0,037.7,030.6,25.0,0000.0,0009.87,0004.12,0003.50
2023-06-10 21:30:00,SystemResetWarning,0829.7,5.01,000.00,029.2,026.5,000.0,037.7,030.7,25.2,0000.0,0009.83,0004.10,0003.50
2023-06-10 21:31:00,SystemResetWarning,0829.7,5.01,000.00,029.2,026.9,000.0,037.8,030.8,25.7,0000.0,0009.79,0004.10,0003.50
2023-06-10 21:32:00,SystemResetWarning,0829.7,5.00,000.00,029.2,027.1,000.0,037.8,030.8,25.1,0000.0,0009.96,0004.13,0003.50
2023-06-10 21:33:00,SystemResetWarning,0829.7,5.00,000.00,029.2,027.4,000.0,037.8,030.8,22.1,0000.0,0009.90,0004.09,0003.47
2023-06-10 21:34:00,SystemResetWarning,0829.6,5.00,000.00,029.3,027.5,000.0,037.8,030.8,21.5,0000.0,0009.75,0004.00,0003.41
2023-06-10 21:35:00,SystemResetWarning,0829.6,5.00,000.00,029.3,027.7,000.0,037.8,030.8,23.5,0000.0,0009.68,0003.94,0003.36
2023-06-10 21:36:00,SystemResetWarning,0829.6,5.00,000.00,029.3,027.8,000.0,037.8,030.9,21.7,0000.0,0009.37,0003.87,0003.30
2023-06-10 21:37:00,SystemResetWarning,0829.6,4.99,000.00,029.3,027.9,000.0,037.8,030.9,18.9,0000.0,0008.40,0003.79,0003.22
2023-06-10 21:38:00,SystemResetWarning,0829.5,5.00,000.00,029.3,028.0,000.0,037.8,030.9,18.9,0000.0,0008.26,0003.71,0003.13
2023-06-10 21:39:00,SystemResetWarning,0829.2,4.99,000.00,029.4,027.8,000.0,037.8,031.0,17.3,0000.0,0008.12,0003.61,0002.98
2023-06-10 21:40:00,SystemResetWarning,0829.3,5.00,000.00,029.4,025.9,000.0,037.8,031.0,17.2,0000.0,0007.81,0003.48,0002.81
2023-06-10 21:41:00,SystemResetWarning,0829.2,5.01,000.00,029.4,025.0,000.0,037.8,031.0,16.9,0000.0,0007.44,0003.35,0002.65
2023-06-10 21:42:00,SystemResetWarning,0829.1,5.02,000.00,029.3,025.2,000.0,037.7,030.8,17.3,0000.0,0006.70,0003.24,0002.48
2023-06-10 21:43:00,SystemResetWarning,0829.1,5.00,000.00,029.2,025.5,000.0,037.8,030.6,17.2,0000.0,0005.97,0003.10,0002.32
2023-06-10 21:44:00,SystemResetWarning,0829.1,5.00,000.00,029.2,025.9,000.0,037.7,030.6,17.1,0000.0,0006.73,0002.94,0002.21
2023-06-10 21:45:00,SystemResetWarning,0828.9,5.01,000.00,029.2,026.3,000.0,037.8,030.6,16.8,0000.0,0006.40,0002.77,0002.13
2023-06-10 21:46:00,SystemResetWarning,0828.9,4.99,000.00,029.2,026.6,000.0,037.8,030.6,16.1,0000.0,0006.22,0002.65,0002.01
2023-06-10 21:47:00,SystemResetWarning,0829.0,4.99,000.00,029.2,026.9,000.0,037.8,030.7,16.5,0000.0,0005.64,0002.49,0001.89
2023-06-10 21:48:00,SystemResetWarning,0828.9,4.99,000.00,029.2,027.1,000.0,037.8,030.7,16.8,0000.0,0005.33,0002.38,0001.81
2023-06-10 21:49:00,SystemResetWarning,0828.8,5.00,000.00,029.2,027.3,000.0,037.7,030.8,17.0,0000.0,0005.23,0002.30,0001.76
2023-06-10 21:50:00,SystemResetWarning,0828.6,5.01,000.00,029.2,027.5,000.0,037.7,030.8,17.1,0000.0,0005.12,0002.23,0001.72
2023-06-10 21:51:00,SystemResetWarning,0828.6,5.01,000.00,029.3,027.7,000.0,037.8,030.8,17.8,0000.0,0005.03,0002.18,0001.69
2023-06-10 21:52:00,SystemResetWarning,0828.7,4.99,000.00,029.3,027.8,000.0,037.8,030.9,17.3,0000.0,0004.99,0002.16,0001.68
2023-06-10 21:53:00,SystemResetWarning,0828.6,4.99,000.00,029.3,027.9,000.0,037.8,030.9,17.2,0000.0,0004.95,0002.13,0001.66
2023-06-10 21:54:00,SystemResetWarning,0828.6,5.00,000.00,029.4,028.0,000.0,037.8,031.0,17.1,0000.0,0004.47,0002.11,0001.64
2023-06-10 21:55:00,SystemResetWarning,0828.6,5.00,000.00,029.4,028.1,000.0,037.8,031.0,16.6,0000.0,0003.29,0002.10,0001.63
2023-06-10 21:56:00,SystemResetWarning,0828.7,5.00,000.00,029.4,027.1,000.0,037.8,031.0,16.9,0000.0,0003.49,0002.10,0001.63
2023-06-10 21:57:00,SystemResetWarning,0828.7,5.01,000.00,029.4,025.2,000.0,037.8,030.9,17.3,0000.0,0003.68,0002.16,0001.65
2023-06-10 21:58:00,SystemResetWarning,0828.6,5.01,000.00,029.4,025.0,000.0,037.7,030.9,17.1,0000.0,0003.84,0002.22,0001.68
2023-06-10 21:59:00,SystemResetWarning,0828.7,4.98,000.00,029.3,025.3,000.0,037.7,030.6,17.0,0000.0,0003.96,0002.27,0001.69
